Wetterdaten: aktuell Montag, 15.10.2018 22:10
Datum Zeit Wetterhtte Helligkeit Boden -10cm Boden 5cm Temp S Luftfeuchte Luftdruck Regen Wind Richtung Richtung Sonnenschein UV Taupunkt Windchill Windben
15.10.2018 22:10 13,2 C -22,6 C 12,6 C 12,1 C 11,7 C 70 % 1016,1 hPa 0,0 l/m 0,3 km/h O-SO 116 0 min 0,0 UV-I 7,9 C 13,2 C 0,0 km/h
15.10.2018 22:05 13,3 C -22,6 C 12,6 C 12,1 C 12,0 C 69 % 1016,1 hPa 0,0 l/m 0,5 km/h N 4 0 min 0,0 UV-I 7,7 C 13,3 C 0,0 km/h
15.10.2018 22:00 13,5 C -22,6 C 12,6 C 12,2 C 12,1 C 69 % 1015,9 hPa 0,0 l/m 1,1 km/h SW 229 0 min 0,0 UV-I 7,9 C 13,5 C 2,7 km/h
15.10.2018 21:55 13,6 C -22,6 C 12,5 C 12,3 C 12,5 C 69 % 1015,9 hPa 0,0 l/m 1,9 km/h S-SO 161 0 min 0,0 UV-I 8,0 C 13,6 C 3,5 km/h
15.10.2018 21:50 13,7 C -22,6 C 12,5 C 12,3 C 12,7 C 69 % 1015,9 hPa 0,0 l/m 1,3 km/h SO 139 0 min 0,0 UV-I 8,1 C 13,7 C 3,2 km/h
15.10.2018 21:45 13,8 C -22,6 C 12,5 C 12,5 C 12,6 C 69 % 1015,9 hPa 0,0 l/m 0,8 km/h W-SW 251 0 min 0,0 UV-I 8,2 C 13,8 C 6,1 km/h
15.10.2018 21:40 14,0 C -22,6 C 12,5 C 12,5 C 12,7 C 68 % 1015,9 hPa 0,0 l/m 0,0 km/h S 184 0 min 0,0 UV-I 8,2 C 14,0 C 2,7 km/h
15.10.2018 21:35 14,0 C -22,6 C 12,5 C 12,5 C 13,3 C 68 % 1015,9 hPa 0,0 l/m 0,5 km/h SO 139 0 min 0,0 UV-I 8,2 C 14,0 C 2,7 km/h
15.10.2018 21:30 14,1 C -22,6 C 12,4 C 12,6 C 13,4 C 68 % 1015,9 hPa 0,0 l/m 1,6 km/h W 274 0 min 0,0 UV-I 8,3 C 14,1 C 0,0 km/h
15.10.2018 21:25 14,1 C -22,3 C 12,4 C 12,6 C 13,7 C 67 % 1015,9 hPa 0,0 l/m 1,6 km/h S-SW 206 0 min 0,0 UV-I 8,1 C 14,1 C 4,2 km/h
15.10.2018 21:20 14,3 C -22,3 C 12,5 C 12,6 C 13,6 C 67 % 1015,9 hPa 0,0 l/m 0,3 km/h S 184 0 min 0,0 UV-I 8,3 C 14,3 C 2,7 km/h
15.10.2018 21:15 14,4 C -22,3 C 12,5 C 12,6 C 13,6 C 67 % 1015,9 hPa 0,0 l/m 0,3 km/h S 184 0 min 0,0 UV-I 8,4 C 14,4 C 0,0 km/h
15.10.2018 21:10 14,4 C -22,3 C 12,5 C 12,7 C 13,6 C 67 % 1015,9 hPa 0,0 l/m 0,3 km/h S-SO 161 0 min 0,0 UV-I 8,4 C 14,4 C 0,0 km/h
15.10.2018 21:05 14,7 C -22,3 C 12,5 C 12,7 C 13,8 C 67 % 1015,9 hPa 0,0 l/m 0,3 km/h W-SW 251 0 min 0,0 UV-I 8,6 C 14,7 C 4,0 km/h
15.10.2018 21:00 14,7 C -22,3 C 12,5 C 12,8 C 13,9 C 66 % 1015,8 hPa 0,0 l/m 0,0 km/h SO 139 0 min 0,0 UV-I 8,4 C 14,7 C 0,0 km/h
15.10.2018 20:55 14,8 C -22,3 C 12,5 C 12,9 C 14,1 C 66 % 1015,8 hPa 0,0 l/m 0,3 km/h S-SO 161 0 min 0,0 UV-I 8,5 C 14,8 C 0,0 km/h
15.10.2018 20:50 15,1 C -22,3 C 12,5 C 12,9 C 14,4 C 65 % 1015,8 hPa 0,0 l/m 0,3 km/h S 184 0 min 0,0 UV-I 8,6 C 15,1 C 0,0 km/h
15.10.2018 20:45 15,1 C -22,3 C 12,5 C 12,9 C 14,6 C 65 % 1015,8 hPa 0,0 l/m 0,5 km/h S-SO 161 0 min 0,0 UV-I 8,6 C 15,1 C 0,0 km/h
15.10.2018 20:40 15,3 C -22,4 C 12,5 C 12,9 C 14,8 C 64 % 1015,0 hPa 0,0 l/m 0,3 km/h NO 49 0 min 0,0 UV-I 8,5 C 15,3 C 0,0 km/h
15.10.2018 20:35 15,3 C -22,4 C 12,5 C 13,0 C 15,3 C 64 % 1015,0 hPa 0,0 l/m 1,1 km/h SO 139 0 min 0,0 UV-I 8,5 C 15,3 C 0,0 km/h
15.10.2018 20:30 15,5 C -22,4 C 12,5 C 13,0 C 15,7 C 64 % 1015,0 hPa 0,0 l/m 1,9 km/h N-NO 26 0 min 0,0 UV-I 8,7 C 15,5 C 0,0 km/h
15.10.2018 20:25 15,5 C -22,4 C 12,4 C 13,0 C 16,1 C 63 % 1015,0 hPa 0,0 l/m 2,7 km/h W 274 0 min 0,0 UV-I 8,5 C 15,5 C 6,6 km/h
15.10.2018 20:20 15,7 C -22,4 C 12,5 C 13,1 C 16,1 C 63 % 1015,4 hPa 0,0 l/m 3,2 km/h S-SO 161 0 min 0,0 UV-I 8,7 C 15,7 C 4,0 km/h
15.10.2018 20:15 15,7 C -22,4 C 12,5 C 13,1 C 16,6 C 63 % 1015,4 hPa 0,0 l/m 2,9 km/h S-SO 161 0 min 0,0 UV-I 8,7 C 15,7 C 4,2 km/h
15.10.2018 20:10 15,9 C -22,4 C 12,5 C 13,1 C 16,6 C 63 % 1015,4 hPa 0,0 l/m 2,1 km/h S-SO 161 0 min 0,0 UV-I 8,9 C 15,9 C 4,0 km/h
15.10.2018 20:05 16,0 C -22,4 C 12,4 C 13,3 C 16,5 C 62 % 1015,4 hPa 0,0 l/m 3,7 km/h S-SW 206 0 min 0,0 UV-I 8,7 C 16,0 C 4,0 km/h
15.10.2018 20:00 16,1 C -22,4 C 12,4 C 13,3 C 16,7 C 62 % 1015,2 hPa 0,0 l/m 5,0 km/h W-SW 251 0 min 0,0 UV-I 8,8 C 16,1 C 4,0 km/h
15.10.2018 19:55 16,0 C -22,4 C 12,4 C 13,2 C 16,6 C 62 % 1015,2 hPa 0,0 l/m 2,7 km/h S-SO 161 0 min 0,0 UV-I 8,7 C 16,0 C 3,7 km/h
15.10.2018 19:50 16,1 C -22,4 C 12,5 C 13,1 C 16,0 C 62 % 1015,2 hPa 0,0 l/m 1,1 km/h W-SW 251 0 min 0,0 UV-I 8,8 C 16,1 C 7,7 km/h
15.10.2018 19:45 16,3 C -22,4 C 12,5 C 13,2 C 16,3 C 61 % 1015,2 hPa 0,0 l/m 1,1 km/h SW 229 0 min 0,0 UV-I 8,8 C 16,3 C 3,5 km/h
15.10.2018 19:40 16,4 C -22,4 C 12,4 C 13,3 C 16,7 C 61 % 1015,2 hPa 0,0 l/m 1,9 km/h NW 319 0 min 0,0 UV-I 8,9 C 16,4 C 5,6 km/h
15.10.2018 19:35 16,7 C -22,4 C 12,5 C 13,2 C 16,8 C 60 % 1015,2 hPa 0,0 l/m 1,3 km/h S-SO 161 0 min 0,0 UV-I 8,9 C 16,7 C 2,7 km/h
15.10.2018 19:30 16,8 C -22,4 C 12,5 C 13,3 C 16,7 C 60 % 1015,2 hPa 0,0 l/m 1,9 km/h S 184 0 min 0,0 UV-I 9,0 C 16,8 C 0,0 km/h
15.10.2018 19:25 17,1 C -22,4 C 12,5 C 13,5 C 16,3 C 59 % 1015,2 hPa 0,0 l/m 1,3 km/h S-SO 161 0 min 0,0 UV-I 9,0 C 17,1 C 0,0 km/h
15.10.2018 19:20 17,5 C -22,4 C 12,5 C 13,4 C 16,6 C 59 % 1015,0 hPa 0,0 l/m 0,8 km/h SO 139 0 min 0,0 UV-I 9,4 C 17,5 C 6,6 km/h
15.10.2018 19:15 17,7 C -22,4 C 12,4 C 13,5 C 16,9 C 58 % 1015,0 hPa 0,0 l/m 0,5 km/h S-SO 161 0 min 0,0 UV-I 9,3 C 17,7 C 0,0 km/h
15.10.2018 19:10 18,0 C -22,4 C 12,4 C 13,6 C 17,0 C 57 % 1015,0 hPa 0,0 l/m 0,0 km/h NW 319 0 min 0,0 UV-I 9,4 C 18,0 C 4,0 km/h
15.10.2018 19:05 18,3 C -22,4 C 12,3 C 13,7 C 17,5 C 57 % 1015,0 hPa 0,0 l/m 0,0 km/h N-NO 26 0 min 0,0 UV-I 9,6 C 18,3 C 0,0 km/h
15.10.2018 19:00 18,7 C -22,4 C 12,3 C 13,9 C 17,7 C 56 % 1014,8 hPa 0,0 l/m 0,3 km/h S-SO 161 0 min 0,0 UV-I 9,7 C 18,7 C 0,0 km/h
15.10.2018 18:55 18,9 C -22,1 C 12,3 C 13,8 C 18,5 C 55 % 1014,8 hPa 0,0 l/m 0,8 km/h O-SO 116 0 min 0,0 UV-I 9,7 C 18,9 C 0,0 km/h
15.10.2018 18:50 19,1 C -22,2 C 12,3 C 14,1 C 18,7 C 55 % 1014,8 hPa 0,0 l/m 1,6 km/h W 274 0 min 0,0 UV-I 9,8 C 19,1 C 3,5 km/h
_ Min-Zeit 08:00 02:01 12:45 07:55 07:25 17:15 17:20 - 21:40 - - - 22:10 07:55 08:00 22:10
Minimum _ 6,0 C -22,8 C 10,7 C 6,9 C 4,6 C 49 % 1013,4 hPa - 0,0 km/h - - - 0,0 UV-I 4,3 C 6,0 C 0,0 km/h
_ Max-Zeit 17:15 14:55 22:10 17:15 14:55 09:50 22:10 22:10 17:05 - - 18:10 12:15 17:20 17:15 18:00
Maximum _ 23,2 C 42,3 C 12,6 C 15,5 C 36,0 C 90 % 1016,1 hPa 0,0 l/m 9,3 km/h
N-NW
- - 5 min 1,4 UV-I 12,1 C 23,2 C 16,7 km/h
S-SO
Durchschnitt _ 12,9 C 1,3 C 11,7 C 10,7 C 17,2 C 74 % 1014,5 hPa #0,0 l/m 2,3 km/h S-SO - #8:45 h 0,7 UV-I 7,9 C 12,8 C 3,3 km/h